| time (UTC) | temp F | wind direction | speed knots | gust knots | rain 1hr in | rain 24hr in | rain mn in | humidity % | barometer mb |
| 20260507040439 | 42 | 330 | 3.5 | 9.6 | 0.00 | 0.27 | 0.27 | 95 | |
| 20260507035939 | 42 | 328 | 4.3 | 9.6 | 0.00 | 0.27 | 0.27 | 95 | |
| 20260507035439 | 42 | 326 | 4.3 | 9.6 | 0.00 | 0.27 | 0.27 | 95 | |
| 20260507034939 | 42 | 339 | 4.3 | 9.6 | 0.00 | 0.27 | 0.27 | 95 | |
| 20260507034438 | 43 | 330 | 4.3 | 9.6 | 0.00 | 0.27 | 0.27 | 95 | |
| 20260507033939 | 43 | 336 | 4.3 | 11.3 | 0.00 | 0.27 | 0.27 | 95 | |
| 20260507033439 | 43 | 334 | 6.1 | 11.3 | 0.00 | 0.27 | 0.27 | 95 | |
| 20260507032939 | 43 | 337 | 4.3 | 11.3 | 0.00 | 0.27 | 0.27 | 96 | |
| 20260507032439 | 43 | 336 | 2.6 | 9.6 | 0.00 | 0.27 | 0.27 | 97 | |
| 20260507031938 | 43 | 336 | 5.2 | 9.6 | 0.00 | 0.27 | 0.27 | 98 | |
| 20260507031438 | 43 | 340 | 4.3 | 8.7 | 0.00 | 0.27 | 0.27 | 98 | |
| 20260507030939 | 43 | 350 | 1.7 | 4.3 | 0.00 | 0.27 | 0.27 | 98 | |
| 20260507030439 | 43 | 0 | 0.0 | 2.6 | 0.00 | 0.27 | 0.27 | 98 | |
| 20260507025939 | 43 | 0 | 0.0 | 0.9 | 0.00 | 0.27 | 0.27 | 98 | |
| 20260507025438 | 43 | 0 | 0.0 | 0.9 | 0.00 | 0.27 | 0.27 | 98 | |
| 20260507024938 | 43 | 0 | 0.0 | 0.0 | 0.00 | 0.27 | 0.27 | 98 | |
| 20260507024439 | 43 | 0 | 0.0 | 0.0 | 0.00 | 0.27 | 0.27 | 98 | |
| 20260507023939 | 43 | 0 | 0.0 | 0.0 | 0.00 | 0.27 | 0.27 | 98 | |
| 20260507023439 | 43 | 0 | 0.0 | 0.0 | 0.00 | 0.27 | 0.27 | 98 | |
| 20260507022938 | 43 | 0 | 0.0 | 0.0 | 0.00 | 0.27 | 0.27 | 97 | |
| 20260507022438 | 43 | 0 | 0.0 | 0.0 | 0.00 | 0.27 | 0.27 | 97 | |
| 20260507021939 | 43 | 0 | 0.0 | 0.0 | 0.00 | 0.27 | 0.27 | 97 | |
| 20260507021439 | 43 | 0 | 0.0 | 0.9 | 0.00 | 0.27 | 0.27 | 98 | |
| 20260507020939 | 43 | 0 | 0.0 | 0.9 | 0.00 | 0.27 | 0.27 | 98 | |
| 20260507020439 | 43 | 0 | 0.0 | 0.9 | 0.00 | 0.27 | 0.27 | 98 | |
| 20260507015938 | 43 | 0 | 0.0 | 0.0 | 0.00 | 0.27 | 0.27 | 98 | |
| 20260507015438 | 43 | 0 | 0.0 | 0.9 | 0.00 | 0.27 | 0.27 | 97 | |
| 20260507014939 | 43 | 0 | 0.0 | 0.9 | 0.00 | 0.27 | 0.27 | 97 | |
| 20260507014439 | 43 | 0 | 0.0 | 0.9 | 0.00 | 0.27 | 0.27 | 97 | |
| 20260507013938 | 43 | 0 | 0.0 | 0.0 | 0.00 | 0.27 | 0.27 | 97 | |
| 20260507013438 | 42 | 0 | 0.0 | 0.0 | 0.00 | 0.27 | 0.27 | 97 | |
| 20260507012938 | 42 | 0 | 0.0 | 0.0 | 0.00 | 0.27 | 0.27 | 97 | |
| 20260507012439 | 42 | 0 | 0.0 | 0.0 | 0.00 | 0.27 | 0.27 | 97 | |
| 20260507011939 | 42 | 0 | 0.0 | 0.0 | 0.00 | 0.27 | 0.27 | 97 | |
| 20260507011439 | 42 | 0 | 0.0 | 0.0 | 0.00 | 0.27 | 0.27 | 97 | |
| 20260507010938 | 42 | 0 | 0.0 | 0.0 | 0.00 | 0.27 | 0.27 | 97 | |
| 20260507010439 | 42 | 0 | 0.0 | 0.0 | 0.00 | 0.27 | 0.27 | 97 | |
| 20260507005939 | 42 | 0 | 0.0 | 0.0 | 0.00 | 0.27 | 0.27 | 97 | |
| 20260507005439 | 42 | 0 | 0.0 | 0.0 | 0.00 | 0.27 | 0.27 | 97 | |
| 20260507004938 | 42 | 0 | 0.0 | 0.0 | 0.00 | 0.27 | 0.27 | 97 | |
| 20260507004438 | 42 | 0 | 0.0 | 0.9 | 0.00 | 0.27 | 0.27 | 97 | |
| 20260507003938 | 41 | 0 | 0.0 | 0.9 | 0.00 | 0.27 | 0.27 | 96 | |
| 20260507003439 | 41 | 0 | 0.0 | 0.0 | 0.00 | 0.27 | 0.27 | 96 | |
| 20260507002939 | 42 | 0 | 0.0 | 0.0 | 0.00 | 0.27 | 0.27 | 95 | |
| 20260507002438 | 42 | 0 | 0.0 | 0.0 | 0.00 | 0.27 | 0.27 | 96 | |
| 20260507001938 | 43 | 0 | 0.0 | 0.0 | 0.00 | 0.27 | 0.27 | 96 | |
| 20260507001439 | 43 | 0 | 0.0 | 0.0 | 0.00 | 0.27 | 0.27 | 96 | |
| 20260507000939 | 43 | 0 | 0.0 | 0.0 | 0.00 | 0.27 | 0.27 | 96 | |
| 20260507000439 | 43 | 0 | 0.0 | 0.0 | 0.00 | 0.27 | 0.27 | 96 | |
| 20260506235939 | 44 | 0 | 0.0 | 0.0 | 0.00 | 0.27 | 0.27 | 96 | |
| 20260506235438 | 44 | 0 | 0.0 | 0.0 | 0.00 | 0.27 | 0.27 | 96 | |
| 20260506234938 | 44 | 0 | 0.0 | 0.0 | 0.00 | 0.27 | 0.27 | 96 | |
| 20260506234438 | 44 | 0 | 0.0 | 0.9 | 0.00 | 0.27 | 0.27 | 96 | |
| 20260506233939 | 44 | 0 | 0.0 | 2.6 | 0.00 | 0.27 | 0.27 | 96 | |
| 20260506232938 | 44 | 0 | 0.0 | 2.6 | 0.00 | 0.27 | 0.27 | 96 | |
| 20260506232438 | 44 | 0 | 0.0 | 1.7 | 0.00 | 0.28 | 0.27 | 96 | |
| 20260506231938 | 44 | 0 | 0.0 | 0.9 | 0.00 | 0.28 | 0.27 | 96 | |
| 20260506231438 | 44 | 0 | 0.0 | 0.9 | 0.00 | 0.29 | 0.27 | 96 | |
| 20260506230939 | 44 | 0 | 0.0 | 0.0 | 0.00 | 0.29 | 0.27 | 96 | |
| 20260506230439 | 44 | 0 | 0.0 | 0.0 | 0.00 | 0.29 | 0.27 | 96 | |
| 20260506225938 | 44 | 0 | 0.0 | 0.0 | 0.00 | 0.29 | 0.27 | 96 | |
| 20260506225438 | 44 | 0 | 0.0 | 2.6 | 0.00 | 0.29 | 0.27 | 96 | |
| 20260506224938 | 44 | 0 | 0.0 | 2.6 | 0.00 | 0.33 | 0.27 | 96 | |
| 20260506224439 | 44 | 0 | 0.0 | 2.6 | 0.00 | 0.33 | 0.27 | 96 | |
| 20260506223939 | 44 | 0 | 0.0 | 0.9 | 0.00 | 0.39 | 0.27 | 96 | |
| 20260506223438 | 44 | 0 | 0.0 | 3.5 | 0.00 | 0.40 | 0.27 | 95 | |
| 20260506222938 | 44 | 0 | 0.0 | 5.2 | 0.00 | 0.40 | 0.27 | 95 | |
| 20260506222438 | 44 | 341 | 1.7 | 5.2 | 0.00 | 0.40 | 0.27 | 95 | |
| 20260506221938 | 44 | 340 | 0.9 | 5.2 | 0.00 | 0.40 | 0.27 | 96 | |
| 20260506221439 | 44 | 335 | 1.7 | 5.2 | 0.00 | 0.41 | 0.27 | 96 | |
| 20260506220939 | 44 | 334 | 1.7 | 6.1 | 0.00 | 0.41 | 0.27 | 96 | |
| 20260506220438 | 44 | 334 | 1.7 | 6.1 | 0.00 | 0.41 | 0.27 | 96 | |
| 20260506215938 | 44 | 335 | 1.7 | 4.3 | 0.00 | 0.41 | 0.27 | 96 | |
| 20260506215438 | 44 | 339 | 0.9 | 7.0 | 0.00 | 0.41 | 0.27 | 96 | |
| 20260506214938 | 44 | 329 | 0.9 | 7.0 | 0.00 | 0.41 | 0.27 | 96 | |
| 20260506214439 | 44 | 341 | 2.6 | 7.0 | 0.00 | 0.41 | 0.27 | 96 | |
| 20260506213939 | 44 | 346 | 4.3 | 7.8 | 0.00 | 0.41 | 0.27 | 97 | |
| 20260506213438 | 44 | 340 | 5.2 | 7.8 | 0.00 | 0.41 | 0.27 | 96 | |
| 20260506212938 | 44 | 343 | 4.3 | 7.8 | 0.00 | 0.41 | 0.27 | 96 | |
| 20260506212438 | 44 | 337 | 4.3 | 7.8 | 0.00 | 0.41 | 0.27 | 97 | |
| 20260506211938 | 44 | 336 | 4.3 | 7.0 | 0.00 | 0.41 | 0.27 | 97 | |
| 20260506211439 | 44 | 326 | 3.5 | 10.4 | 0.00 | 0.41 | 0.27 | 97 | |
| 20260506210939 | 43 | 340 | 4.3 | 10.4 | 0.00 | 0.41 | 0.27 | 98 | |
| 20260506210438 | 43 | 341 | 5.2 | 10.4 | 0.00 | 0.41 | 0.27 | 98 | |
| 20260506205938 | 43 | 337 | 4.3 | 10.4 | 0.00 | 0.41 | 0.27 | 98 | |
| 20260506205438 | 43 | 329 | 3.5 | 10.4 | 0.00 | 0.41 | 0.27 | 98 | |
| 20260506204938 | 43 | 332 | 4.3 | 11.3 | 0.00 | 0.41 | 0.27 | 98 | |
| 20260506204439 | 43 | 344 | 4.3 | 11.3 | 0.00 | 0.41 | 0.27 | 98 | |
| 20260506203938 | 43 | 336 | 6.1 | 8.7 | 0.00 | 0.41 | 0.27 | 98 | |
| 20260506203438 | 43 | 344 | 5.2 | 8.7 | 0.00 | 0.41 | 0.27 | 98 | |
| 20260506202938 | 43 | 334 | 4.3 | 8.7 | 0.00 | 0.41 | 0.27 | 98 | |
| 20260506202438 | 43 | 340 | 5.2 | 9.6 | 0.00 | 0.41 | 0.27 | 98 | |
| 20260506201939 | 43 | 336 | 4.3 | 10.4 | 0.00 | 0.41 | 0.27 | 98 | |
| 20260506201439 | 43 | 337 | 5.2 | 12.2 | 0.00 | 0.41 | 0.27 | 98 | |
| 20260506200938 | 43 | 339 | 7.0 | 12.2 | 0.00 | 0.41 | 0.27 | 98 | |
| 20260506200438 | 43 | 342 | 7.0 | 12.2 | 0.00 | 0.41 | 0.27 | 98 | |
| 20260506195938 | 43 | 358 | 5.2 | 9.6 | 0.00 | 0.41 | 0.27 | 98 | |
| 20260506195438 | 44 | 337 | 5.2 | 10.4 | 0.01 | 0.41 | 0.27 | 98 | |
| 20260506194938 | 43 | 335 | 4.3 | 11.3 | 0.01 | 0.41 | 0.27 | 98 | |
| 20260506194438 | 43 | 341 | 7.0 | 11.3 | 0.01 | 0.41 | 0.27 | 98 | |
| 20260506193938 | 43 | 332 | 4.3 | 10.4 | 0.02 | 0.41 | 0.27 | 98 | |
| 20260506193438 | 43 | 332 | 4.3 | 10.4 | 0.02 | 0.41 | 0.27 | 98 | |
| 20260506192938 | 44 | 340 | 3.5 | 8.7 | 0.02 | 0.41 | 0.27 | 98 | |
| 20260506192438 | 44 | 330 | 4.3 | 7.8 | 0.02 | 0.41 | 0.27 | 98 | |
| 20260506191938 | 44 | 332 | 3.5 | 7.8 | 0.02 | 0.42 | 0.27 | 98 | |
| 20260506191438 | 44 | 340 | 4.3 | 8.7 | 0.02 | 0.42 | 0.27 | 98 | |
| 20260506190938 | 43 | 332 | 3.5 | 8.7 | 0.02 | 0.42 | 0.27 | 98 | |
| 20260506190438 | 44 | 329 | 2.6 | 8.7 | 0.02 | 0.42 | 0.27 | 98 | |
| 20260506185938 | 43 | 321 | 1.7 | 8.7 | 0.02 | 0.42 | 0.27 | 97 | |
| 20260506185438 | 43 | 325 | 2.6 | 9.6 | 0.01 | 0.41 | 0.26 | 97 | |
| 20260506184938 | 44 | 319 | 4.3 | 9.6 | 0.02 | 0.41 | 0.26 | 97 | |
| 20260506184438 | 44 | 338 | 4.3 | 11.3 | 0.02 | 0.41 | 0.26 | 97 | |
| 20260506183938 | 44 | 341 | 5.2 | 11.3 | 0.01 | 0.40 | 0.25 | 97 | |
| 20260506183438 | 44 | 340 | 6.1 | 11.3 | 0.01 | 0.40 | 0.25 | 97 | |
| 20260506182938 | 44 | 336 | 6.1 | 10.4 | 0.01 | 0.40 | 0.25 | 97 | |
| 20260506182439 | 44 | 338 | 4.3 | 10.4 | 0.01 | 0.40 | 0.25 | 97 | |
| 20260506181938 | 44 | 341 | 5.2 | 9.6 | 0.01 | 0.40 | 0.25 | 97 | |
| 20260506181438 | 45 | 337 | 5.2 | 9.6 | 0.01 | 0.45 | 0.25 | 97 | |
| 20260506180938 | 44 | 336 | 3.5 | 9.6 | 0.01 | 0.47 | 0.25 | 97 | |
| 20260506180438 | 45 | 338 | 4.3 | 7.8 | 0.01 | 0.47 | 0.25 | 97 | |
| 20260506175938 | 45 | 337 | 2.6 | 7.8 | 0.02 | 0.47 | 0.25 | 98 | |
| 20260506175437 | 45 | 335 | 5.2 | 9.6 | 0.02 | 0.47 | 0.25 | 98 | |
| 20260506174938 | 44 | 334 | 4.3 | 9.6 | 0.01 | 0.46 | 0.24 | 97 | |
| 20260506174438 | 44 | 340 | 3.5 | 7.0 | 0.01 | 0.46 | 0.24 | 98 | |
| 20260506173938 | 44 | 343 | 4.3 | 10.4 | 0.01 | 0.46 | 0.24 | 97 | |
| 20260506173438 | 44 | 333 | 3.5 | 10.4 | 0.01 | 0.46 | 0.24 | 97 | |
| 20260506172938 | 44 | 346 | 4.3 | 7.8 | 0.01 | 0.46 | 0.24 | 98 | |
| 20260506172438 | 44 | 342 | 3.5 | 8.7 | 0.01 | 0.46 | 0.24 | 98 | |
| 20260506171938 | 44 | 351 | 5.2 | 8.7 | 0.01 | 0.46 | 0.24 | 98 | |
| 20260506171438 | 44 | 336 | 2.6 | 7.8 | 0.01 | 0.46 | 0.24 | 98 | |
| 20260506170938 | 44 | 338 | 4.3 | 7.0 | 0.01 | 0.46 | 0.24 | 98 | |
| 20260506170438 | 44 | 337 | 2.6 | 7.8 | 0.01 | 0.46 | 0.24 | 98 | |
| 20260506165938 | 44 | 348 | 3.5 | 7.8 | 0.00 | 0.45 | 0.23 | 98 | |
| 20260506165437 | 44 | 342 | 3.5 | 8.7 | 0.00 | 0.45 | 0.23 | 97 | |
| 20260506164938 | 44 | 339 | 6.1 | 8.7 | 0.00 | 0.45 | 0.23 | 98 | |
| 20260506164438 | 44 | 339 | 2.6 | 7.8 | 0.00 | 0.45 | 0.23 | 98 | |
| 20260506163938 | 44 | 348 | 3.5 | 7.8 | 0.01 | 0.45 | 0.23 | 98 | |
| 20260506163438 | 44 | 340 | 4.3 | 7.0 | 0.01 | 0.45 | 0.23 | 98 | |
| 20260506162938 | 44 | 348 | 2.6 | 8.7 | 0.01 | 0.45 | 0.23 | 98 | |
| 20260506162437 | 44 | 342 | 5.2 | 8.7 | 0.01 | 0.45 | 0.23 | 98 | |
| 20260506161938 | 44 | 345 | 4.3 | 7.8 | 0.02 | 0.45 | 0.23 | 98 | |
| 20260506161438 | 44 | 349 | 3.5 | 7.0 | 0.02 | 0.45 | 0.23 | 98 | |
| 20260506160938 | 44 | 340 | 4.3 | 7.0 | 0.03 | 0.45 | 0.23 | 98 | |
| 20260506160438 | 44 | 342 | 3.5 | 7.0 | 0.03 | 0.45 | 0.23 | 98 | |
| 20260506155938 | 43 | 339 | 4.3 | 7.0 | 0.03 | 0.45 | 0.23 | 98 | |
| 20260506155437 | 43 | 336 | 1.7 | 4.3 | 0.04 | 0.45 | 0.23 | 98 | |
| 20260506154938 | 43 | 330 | 2.6 | 7.0 | 0.04 | 0.45 | 0.23 | 98 | |
| 20260506154439 | 43 | 336 | 3.5 | 7.0 | 0.04 | 0.45 | 0.23 | 98 | |
| 20260506153938 | 43 | 332 | 2.6 | 7.8 | 0.03 | 0.44 | 0.22 | 98 | |
| 20260506153438 | 43 | 342 | 4.3 | 7.8 | 0.03 | 0.44 | 0.22 | 98 | |
| 20260506152937 | 43 | 336 | 1.7 | 6.1 | 0.04 | 0.44 | 0.22 | 98 | |
| 20260506152437 | 43 | 0 | 0.0 | 6.1 | 0.04 | 0.44 | 0.22 | 98 | |
| 20260506151938 | 43 | 337 | 1.7 | 4.3 | 0.03 | 0.43 | 0.21 | 98 | |
| 20260506151438 | 43 | 351 | 2.6 | 5.2 | 0.03 | 0.43 | 0.21 | 98 | |
| 20260506150938 | 43 | 339 | 2.6 | 5.2 | 0.03 | 0.42 | 0.20 | 98 | |
| 20260506150437 | 42 | 335 | 2.6 | 4.3 | 0.03 | 0.42 | 0.20 | 98 | |
| 20260506145937 | 42 | 336 | 1.7 | 4.3 | 0.03 | 0.42 | 0.20 | 98 | |
| 20260506145438 | 42 | 0 | 0.0 | 3.5 | 0.02 | 0.41 | 0.19 | 98 | |
| 20260506144938 | 42 | 0 | 0.0 | 5.2 | 0.03 | 0.41 | 0.19 | 98 | |
| 20260506144438 | 42 | 349 | 2.6 | 7.0 | 0.03 | 0.41 | 0.19 | 98 | |
| 20260506143937 | 42 | 345 | 2.6 | 7.0 | 0.03 | 0.41 | 0.19 | 98 | |
| 20260506143437 | 42 | 338 | 1.7 | 7.0 | 0.03 | 0.41 | 0.19 | 98 | |
| 20260506142938 | 42 | 347 | 0.9 | 9.6 | 0.02 | 0.40 | 0.18 | 98 | |
| 20260506142438 | 42 | 335 | 5.2 | 9.6 | 0.03 | 0.40 | 0.18 | 98 | |
| 20260506141938 | 42 | 336 | 3.5 | 6.1 | 0.03 | 0.40 | 0.18 | 98 | |
| 20260506141437 | 42 | 337 | 1.7 | 6.1 | 0.04 | 0.40 | 0.18 | 98 | |
| 20260506140937 | 42 | 334 | 2.6 | 6.1 | 0.03 | 0.39 | 0.17 | 98 | |
| 20260506140438 | 42 | 335 | 1.7 | 6.1 | 0.04 | 0.39 | 0.17 | 98 | |
| 20260506135938 | 42 | 333 | 1.7 | 7.8 | 0.04 | 0.39 | 0.17 | 98 | |
| 20260506135438 | 42 | 321 | 2.6 | 7.8 | 0.05 | 0.39 | 0.17 | 98 | |
| 20260506134938 | 42 | 333 | 4.3 | 7.0 | 0.05 | 0.38 | 0.16 | 98 | |
| 20260506134437 | 42 | 334 | 2.6 | 7.0 | 0.06 | 0.38 | 0.16 | 98 | |
| 20260506133938 | 42 | 338 | 3.5 | 7.0 | 0.07 | 0.38 | 0.16 | 98 | |
| 20260506133438 | 42 | 344 | 2.6 | 6.1 | 0.08 | 0.38 | 0.16 | 98 | |
| 20260506132938 | 43 | 335 | 2.6 | 6.1 | 0.09 | 0.38 | 0.16 | 98 | |
| 20260506131937 | 43 | 338 | 2.6 | 7.0 | 0.10 | 0.37 | 0.15 | 98 | |
| 20260506131438 | 43 | 320 | 1.7 | 5.2 | 0.09 | 0.36 | 0.14 | 98 | |
| 20260506130938 | 43 | 333 | 1.7 | 4.3 | 0.10 | 0.36 | 0.14 | 98 | |
| 20260506130438 | 43 | 323 | 1.7 | 4.3 | 0.10 | 0.35 | 0.13 | 98 | |
| 20260506125937 | 43 | 318 | 1.7 | 4.3 | 0.10 | 0.35 | 0.13 | 98 | |
| 20260506125437 | 43 | 333 | 0.9 | 4.3 | 0.10 | 0.34 | 0.12 | 98 | |
| 20260506124937 | 43 | 319 | 0.9 | 4.3 | 0.10 | 0.33 | 0.11 | 98 | |
| 20260506124438 | 43 | 0 | 0.0 | 3.5 | 0.10 | 0.32 | 0.10 | 98 | |
| 20260506123938 | 43 | 0 | 0.0 | 5.2 | 0.09 | 0.31 | 0.09 | 98 | |
| 20260506123438 | 43 | 327 | 1.7 | 5.2 | 0.08 | 0.30 | 0.08 | 98 | |
| 20260506122937 | 43 | 0 | 0.0 | 5.2 | 0.07 | 0.29 | 0.07 | 98 | |
| 20260506122437 | 43 | 340 | 0.9 | 5.2 | 0.06 | 0.28 | 0.06 | 98 | |
| 20260506121938 | 43 | 325 | 1.7 | 6.1 | 0.05 | 0.27 | 0.05 | 98 | |
| 20260506121438 | 43 | 329 | 1.7 | 6.1 | 0.05 | 0.27 | 0.05 | 97 | |
| 20260506120937 | 43 | 327 | 2.6 | 7.8 | 0.04 | 0.26 | 0.04 | 97 | |
| 20260506120437 | 43 | 338 | 3.5 | 7.8 | 0.03 | 0.25 | 0.03 | 97 | |
| 20260506115937 | 43 | 334 | 2.6 | 7.8 | 0.03 | 0.25 | 0.03 | 97 | |
| 20260506115438 | 44 | 337 | 4.3 | 7.8 | 0.02 | 0.24 | 0.02 | 97 | |
| 20260506114938 | 44 | 337 | 2.6 | 7.8 | 0.01 | 0.23 | 0.01 | 97 | |
| 20260506113938 | 45 | 343 | 4.3 | 7.0 | 0.00 | 0.22 | 0.00 | 98 | |
| 20260506113437 | 0 | 0.0 | 0.0 | 0.00 | 0.22 | 0.00 | |||
| 20260506112938 | 0 | 0.0 | 0.0 | 0.00 | 0.22 | 0.00 | |||
| 20260506112438 | 0 | 0.0 | 0.0 | 0.00 | 0.22 | 0.00 | |||
| 20260506111437 | 0 | 0.0 | 0.0 | 0.00 | 0.22 | 0.00 | |||
| 20260506110937 | 0 | 0.0 | 0.0 | 0.00 | 0.22 | 0.00 | |||
| 20260506110437 | 0 | 0.0 | 0.0 | 0.00 | 0.22 | 0.00 | |||
| 20260506105938 | 0 | 0.0 | 0.0 | 0.00 | 0.22 | 0.00 | |||
| 20260506105438 | 0 | 0.0 | 0.0 | 0.00 | 0.22 | 0.00 | |||
| 20260506104937 | 0 | 0.0 | 0.0 | 0.00 | 0.22 | 0.00 | |||
| 20260506104437 | 0 | 0.0 | 0.0 | 0.00 | 0.22 | 0.00 | |||
| 20260506103937 | 0 | 0.0 | 0.0 | 0.00 | 0.22 | 0.00 | |||
| 20260506103438 | 0 | 0.0 | 0.0 | 0.00 | 0.22 | 0.00 | |||
| 20260506102938 | 0 | 0.0 | 0.0 | 0.00 | 0.22 | 0.00 | |||
| 20260506102437 | 0 | 0.0 | 0.0 | 0.00 | 0.22 | 0.00 | |||
| 20260506101937 | 0 | 0.0 | 0.0 | 0.00 | 0.22 | 0.00 | |||
| 20260506101437 | 0 | 0.0 | 0.0 | 0.00 | 0.22 | 0.00 | |||
| 20260506100937 | 0 | 0.0 | 0.0 | 0.00 | 0.22 | 0.00 | |||
| 20260506100438 | 0 | 0.0 | 0.0 | 0.00 | 0.22 | 0.00 | |||
| 20260506095938 | 0 | 0.0 | 0.0 | 0.00 | 0.22 | 0.00 | |||
| 20260506095437 | 0 | 0.0 | 0.0 | 0.00 | 0.22 | 0.00 | |||
| 20260506094938 | 0 | 0.0 | 0.0 | 0.00 | 0.22 | 0.00 | |||
| 20260506094437 | 0 | 0.0 | 0.0 | 0.00 | 0.22 | 0.00 | |||
| 20260506093438 | 0 | 0.0 | 0.0 | 0.00 | 0.22 | 0.00 | |||
| 20260506092937 | 0 | 0.0 | 0.0 | 0.00 | 0.22 | 0.00 | |||
| 20260506092437 | 0 | 0.0 | 0.0 | 0.00 | 0.22 | 0.00 | |||
| 20260506091937 | 0 | 0.0 | 0.0 | 0.00 | 0.22 | 0.00 | |||
| 20260506091437 | 0 | 0.0 | 0.0 | 0.00 | 0.22 | 0.00 | |||
| 20260506090938 | 0 | 0.0 | 0.0 | 0.00 | 0.22 | 0.00 | |||
| 20260506090437 | 0 | 0.0 | 0.0 | 0.00 | 0.22 | 0.00 | |||
| 20260506085937 | 0 | 0.0 | 0.0 | 0.00 | 0.22 | 0.00 | |||
| 20260506085437 | 0 | 0.0 | 0.0 | 0.00 | 0.22 | 0.00 | |||
| 20260506084937 | 0 | 0.0 | 0.0 | 0.00 | 0.22 | 0.00 | |||
| 20260506084438 | 0 | 0.0 | 0.0 | 0.00 | 0.22 | 0.00 | |||
| 20260506083938 | 0 | 0.0 | 0.0 | 0.00 | 0.22 | 0.00 | |||
| 20260506083437 | 0 | 0.0 | 0.0 | 0.00 | 0.22 | 0.00 | |||
| 20260506082937 | 0 | 0.0 | 0.0 | 0.00 | 0.22 | 0.00 | |||
| 20260506082437 | 0 | 0.0 | 0.0 | 0.00 | 0.22 | 0.00 | |||
| 20260506081938 | 0 | 0.0 | 0.0 | 0.00 | 0.22 | 0.00 | |||
| 20260506081438 | 0 | 0.0 | 0.0 | 0.00 | 0.22 | 0.00 | |||
| 20260506080937 | 0 | 0.0 | 0.0 | 0.00 | 0.22 | 0.00 | |||
| 20260506080437 | 0 | 0.0 | 0.0 | 0.00 | 0.22 | 0.00 | |||
| 20260506073437 | 0 | 0.0 | 0.0 | 0.00 | 0.22 | 0.00 | |||
| 20260506072937 | 0 | 0.0 | 0.0 | 0.00 | 0.22 | 0.00 | |||
| 20260506072438 | 0 | 0.0 | 0.0 | 0.00 | 0.22 | 0.00 | |||
| 20260506071937 | 0 | 0.0 | 0.0 | 0.00 | 0.22 | 0.00 | |||
| 20260506071437 | 0 | 0.0 | 0.0 | 0.00 | 0.22 | 0.00 | |||
| 20260506070937 | 0 | 0.0 | 0.0 | 0.00 | 0.22 | 0.00 | |||
| 20260506070437 | 0 | 0.0 | 0.0 | 0.00 | 0.22 | 0.00 | |||
| 20260506062437 | 0 | 0.0 | 0.0 | 0.00 | 0.22 | 0.00 | |||
| 20260506061937 | 0 | 0.0 | 0.0 | 0.00 | 0.22 | 0.00 | |||
| 20260506061437 | 0 | 0.0 | 0.0 | 0.00 | 0.22 | 0.00 | |||
| 20260506060937 | 0 | 0.0 | 0.0 | 0.00 | 0.22 | 0.22 | |||
| 20260506060437 | 0 | 0.0 | 0.0 | 0.00 | 0.22 | 0.22 | |||
| 20260506050937 | 45 | 0 | 0.0 | 0.9 | 0.00 | 0.22 | 0.22 | 97 | |
| 20260506050437 | 45 | 0 | 0.0 | 2.6 | 0.00 | 0.22 | 0.22 | 97 | |
| 20260506044937 | 45 | 0 | 0.0 | 0.9 | 0.00 | 0.22 | 0.22 | 97 | |
| 20260506044437 | 45 | 0 | 0.0 | 0.9 | 0.00 | 0.22 | 0.22 | 97 | |
| 20260506043937 | 45 | 0 | 0.0 | 0.9 | 0.00 | 0.22 | 0.22 | 97 | |
| 20260506043437 | 45 | 0 | 0.0 | 0.9 | 0.00 | 0.22 | 0.22 | 97 | |
| 20260506042437 | 45 | 0 | 0.0 | 0.9 | 0.00 | 0.22 | 0.22 | 96 | |
| 20260506041938 | 45 | 0 | 0.0 | 2.6 | 0.00 | 0.22 | 0.22 | 96 | |
| 20260506041438 | 45 | 0 | 0.0 | 2.6 | 0.00 | 0.22 | 0.22 | 96 |